Terminal Aerodrome Forecast
Issued by NWS

Home | Current Version | Previous Version | Text Only | Print | Product List | Glossary On
Versions: 1 2 3 4 5 6 7 8 9 10 11 12
000
FTUS41 KBTV 302322
TAFRUT
TAF
KRUT 302322Z 3100/3124 14004KT P6SM SCT080
      TEMPO 3100/3103 BKN080
     FM311300 24005KT P6SM SCT040
     FM311800 28007KT P6SM SCT040
      AMD LTD TO CLD VIS AND WIND=

USA.gov is the U.S. government's official web portal to all federal, state and local government web resources and services.